Flag for Switzerland Weather past 2 weeks in Chur, Graubünden, Switzerland

Now
52 °F

Cool.


Feels Like: 50 °F
Forecast: 42 / 76 °F
Wind: 6 mph from Northeast

Location: Chur-Ems

Current Time: May 28, 2015 at 12:35:55 AM

Latest Report: May 27, 2015 at 10:00 PM


Visibility: N/A

Pressure: 30.19 "Hg

Humidity: 61%

Dew point: 38 °F

Location of ChurLocation

Historic Weather in Chur — Graph

°F

Chur temperature yesterday

Maximum temperature yesterday: 62 °F (at 4:00 PM)
Minimum temperature yesterday: 48 °F (at 6:00 AM)
Average temperature yesterday: 54 °F

Past Weeks' High & Low Weather Summary

 TemperatureHumidityPressure
High85 °F (May 13, 2:00 PM)94% (May 14, 4:00 AM)30.33 "Hg (May 14, 4:00 AM)
Low41 °F (May 21, 4:00 AM)24% (May 13, 2:00 PM)29.68 "Hg (May 18, 6:00 PM)
Average55 °F72%30.04 "Hg
* Reported May 12 10:00 PM — May 27 10:00 PM, Chur, Weather by CustomWeather, © 2015

Note: Actual official high and low records may vary slightly from our data, if they occured in-between our weather recording intervals... More about our weather records

Advertising

Chur weather history for previous 24 hours

 ConditionsComfort  
Time TempWeatherWind HumidityBarometerVisibility
10:00 PM
Wed, May 27
52 °FCool.6 mph61%30.19 "HgN/A
9:00 PM53 °FCool.8 mph59%30.16 "HgN/A
8:00 PM55 °FPassing clouds.5 mph54%30.14 "Hg14 mi
7:00 PM57 °FRefreshingly cool.8 mph48%30.13 "HgN/A
6:00 PM61 °FRefreshingly cool.12 mph41%30.12 "HgN/A
5:00 PM62 °FScattered clouds.12 mph36%30.12 "Hg12 mi
4:00 PM62 °FRefreshingly cool.13 mph40%30.14 "HgN/A
3:00 PM59 °FRefreshingly cool.14 mph43%30.16 "HgN/A
2:00 PM60 °FPartly sunny.14 mph45%30.16 "Hg12 mi
1:00 PM58 °FRefreshingly cool.14 mph49%30.18 "HgN/A
12:00 PM56 °FRefreshingly cool.13 mph42%30.19 "HgN/A
11:00 AM53 °FFog.13 mph55%30.21 "Hg7 mi
10:00 AM51 °FCool.10 mph64%30.22 "HgN/A
9:00 AM49 °FCool.12 mph72%30.22 "HgN/A
8:00 AM49 °FLow clouds.12 mph73%30.21 "Hg6 mi
7:00 AM48 °FCool.10 mph76%30.21 "HgN/A
6:00 AM48 °FCool.10 mph78%30.20 "HgN/A
4:00 AM48 °FCool.12 mph74%30.18 "HgN/A
3:00 AM49 °FCool.12 mph73%30.17 "HgN/A
2:00 AM49 °FFog.8 mph78%30.17 "Hg3 mi
1:00 AM50 °FCool.9 mph75%30.15 "HgN/A
12:00 AM50 °FCool.8 mph78%30.15 "HgN/A
Weather by CustomWeather, © 2015

See weather overviewHow to use our weather pages